TimeCST,TemperatureF,Dew PointF,Humidity,Sea Level PressureIn,VisibilityMPH,Wind Direction,Wind SpeedMPH,Gust SpeedMPH,PrecipitationIn,Events,Conditions,WindDirDegrees,DateUTC
12:15 AM,66.2,53.6,64,30.26,10.0,NE,19.6,-,N/A,,Overcast,50,2013-12-26 06:15:00
12:35 AM,66.2,50.0,56,30.26,10.0,NE,18.4,-,N/A,,Overcast,50,2013-12-26 06:35:00
12:55 AM,68.0,50.0,52,30.25,10.0,NE,20.7,-,N/A,,Overcast,50,2013-12-26 06:55:00
1:15 AM,68.0,50.0,52,30.25,10.0,NE,19.6,-,N/A,,Overcast,50,2013-12-26 07:15:00
1:35 AM,68.0,51.8,56,30.25,10.0,NE,19.6,-,N/A,,Overcast,50,2013-12-26 07:35:00
1:55 AM,68.0,51.8,56,30.25,10.0,NE,24.2,-,N/A,,Overcast,50,2013-12-26 07:55:00
2:15 AM,66.2,53.6,64,30.25,10.0,NE,21.9,-,N/A,,Overcast,50,2013-12-26 08:15:00
2:35 AM,66.2,53.6,64,30.24,10.0,NE,21.9,-,N/A,,Overcast,40,2013-12-26 08:35:00
2:55 AM,66.2,53.6,64,30.24,10.0,NE,23.0,-,N/A,,Overcast,50,2013-12-26 08:55:00
3:15 AM,66.2,51.8,60,30.24,10.0,NE,23.0,-,N/A,,Overcast,50,2013-12-26 09:15:00
3:35 AM,66.2,51.8,60,30.24,10.0,NE,23.0,-,N/A,,Overcast,40,2013-12-26 09:35:00
3:55 AM,66.2,51.8,60,30.23,10.0,NE,25.3,-,N/A,,Overcast,40,2013-12-26 09:55:00
4:15 AM,66.2,53.6,64,30.23,10.0,NE,24.2,-,N/A,,Overcast,40,2013-12-26 10:15:00
4:35 AM,66.2,51.8,60,30.22,10.0,NE,26.5,-,N/A,,Unknown,50,2013-12-26 10:35:00
4:55 AM,66.2,51.8,60,30.22,10.0,NE,26.5,-,N/A,,Overcast,40,2013-12-26 10:55:00
5:15 AM,66.2,51.8,60,30.23,10.0,NE,25.3,-,N/A,,Overcast,40,2013-12-26 11:15:00
5:35 AM,66.2,53.6,64,30.23,10.0,NE,26.5,-,N/A,,Overcast,40,2013-12-26 11:35:00
5:55 AM,66.2,53.6,64,30.24,10.0,NE,23.0,-,N/A,,Overcast,40,2013-12-26 11:55:00
6:15 AM,66.2,53.6,64,30.24,10.0,NE,24.2,-,N/A,,Overcast,40,2013-12-26 12:15:00
6:35 AM,66.2,53.6,64,30.24,10.0,NE,26.5,-,N/A,,Overcast,40,2013-12-26 12:35:00
6:55 AM,66.2,53.6,64,30.25,10.0,NE,25.3,-,N/A,,Overcast,50,2013-12-26 12:55:00
7:15 AM,66.2,53.6,64,30.26,10.0,NE,25.3,-,N/A,,Overcast,40,2013-12-26 13:15:00
7:35 AM,66.2,53.6,64,30.26,10.0,NE,25.3,-,N/A,,Overcast,40,2013-12-26 13:35:00
7:55 AM,66.2,53.6,64,30.26,9.0,NE,26.5,-,N/A,,Overcast,40,2013-12-26 13:55:00
8:15 AM,66.2,53.6,64,30.27,10.0,NE,26.5,-,N/A,,Overcast,40,2013-12-26 14:15:00
8:35 AM,66.2,53.6,64,30.27,10.0,NE,27.6,-,N/A,,Overcast,40,2013-12-26 14:35:00
8:55 AM,66.2,53.6,64,30.29,10.0,NE,25.3,-,N/A,,Overcast,40,2013-12-26 14:55:00
9:15 AM,66.2,53.6,64,30.28,9.0,NE,24.2,31.1,N/A,,Overcast,40,2013-12-26 15:15:00
9:35 AM,66.2,53.6,64,30.30,9.0,NE,27.6,-,N/A,,Overcast,50,2013-12-26 15:35:00
9:55 AM,66.2,53.6,64,30.30,10.0,NE,27.6,-,N/A,,Overcast,50,2013-12-26 15:55:00
10:15 AM,66.2,53.6,64,30.30,10.0,NE,24.2,29.9,N/A,,Overcast,50,2013-12-26 16:15:00
10:35 AM,66.2,53.6,64,30.30,10.0,NE,24.2,-,N/A,,Overcast,50,2013-12-26 16:35:00
10:55 AM,66.2,51.8,60,30.30,10.0,NE,24.2,-,N/A,,Overcast,50,2013-12-26 16:55:00
11:15 AM,66.2,53.6,64,30.30,10.0,NE,25.3,-,N/A,,Unknown,40,2013-12-26 17:15:00
11:35 AM,66.2,53.6,64,30.30,10.0,NE,23.0,29.9,N/A,,Overcast,40,2013-12-26 17:35:00
11:55 AM,66.2,51.8,60,30.29,10.0,NE,24.2,-,N/A,,Overcast,50,2013-12-26 17:55:00
12:15 PM,66.2,51.8,60,30.29,10.0,NE,23.0,-,N/A,,Overcast,40,2013-12-26 18:15:00
12:35 PM,66.2,51.8,60,30.27,10.0,NE,23.0,-,N/A,,Overcast,50,2013-12-26 18:35:00
12:55 PM,66.2,51.8,60,30.26,10.0,NE,21.9,28.8,N/A,,Overcast,40,2013-12-26 18:55:00
1:15 PM,64.4,53.6,68,30.25,10.0,NE,21.9,-,N/A,,Overcast,50,2013-12-26 19:15:00
1:35 PM,64.4,53.6,68,30.24,5.0,NE,24.2,-,N/A,,Haze,40,2013-12-26 19:35:00
1:55 PM,64.4,53.6,68,30.24,4.0,NE,21.9,-,N/A,,Haze,40,2013-12-26 19:55:00
2:15 PM,64.4,53.6,68,30.23,9.0,NE,21.9,-,N/A,,Mostly Cloudy,40,2013-12-26 20:15:00
2:35 PM,64.4,53.6,68,30.24,10.0,NE,19.6,26.5,N/A,,Overcast,40,2013-12-26 20:35:00
2:55 PM,64.4,51.8,64,30.24,10.0,NE,21.9,-,N/A,,Overcast,40,2013-12-26 20:55:00
3:15 PM,64.4,51.8,64,30.24,10.0,NE,17.3,-,N/A,,Overcast,40,2013-12-26 21:15:00
3:35 PM,64.4,51.8,64,30.25,10.0,NE,18.4,-,N/A,,Overcast,50,2013-12-26 21:35:00
3:55 PM,64.4,53.6,68,30.25,7.0,NE,16.1,-,N/A,,Overcast,50,2013-12-26 21:55:00
4:15 PM,64.4,51.8,64,30.26,9.0,NE,17.3,-,N/A,,Overcast,50,2013-12-26 22:15:00
4:35 PM,64.4,51.8,64,30.26,6.0,NE,18.4,-,N/A,,Haze,50,2013-12-26 22:35:00
4:55 PM,64.4,53.6,68,30.26,3.0,NE,16.1,-,0.02,,Haze,40,2013-12-26 22:55:00
5:15 PM,64.4,53.6,68,30.25,9.0,NE,19.6,-,N/A,,Overcast,50,2013-12-26 23:15:00
5:35 PM,64.4,51.8,64,30.25,10.0,NE,18.4,-,N/A,,Overcast,50,2013-12-26 23:35:00
5:55 PM,64.4,51.8,64,30.25,10.0,NE,20.7,-,0.01,,Overcast,40,2013-12-26 23:55:00
6:15 PM,64.4,51.8,64,30.25,10.0,NE,18.4,24.2,N/A,,Overcast,40,2013-12-27 00:15:00
6:35 PM,64.4,53.6,68,30.25,7.0,NE,20.7,-,N/A,,Overcast,40,2013-12-27 00:35:00
6:55 PM,64.4,53.6,68,30.26,8.0,NNE,16.1,25.3,0.01,,Overcast,30,2013-12-27 00:55:00
7:15 PM,64.4,53.6,68,30.27,7.0,NNE,9.2,23.0,N/A,,Overcast,20,2013-12-27 01:15:00
7:35 PM,64.4,53.6,68,30.28,6.0,NNE,13.8,23.0,N/A,,Haze,30,2013-12-27 01:35:00
7:55 PM,62.6,53.6,72,30.28,8.0,NNE,13.8,20.7,0.02,,Mostly Cloudy,30,2013-12-27 01:55:00
8:15 PM,62.6,53.6,72,30.28,8.0,NNE,9.2,21.9,N/A,,Overcast,20,2013-12-27 02:15:00
8:35 PM,62.6,53.6,72,30.29,10.0,NNE,12.7,23.0,N/A,,Overcast,30,2013-12-27 02:35:00
8:55 PM,62.6,53.6,72,30.29,8.0,NNE,10.4,18.4,N/A,,Overcast,20,2013-12-27 02:55:00
9:15 PM,62.6,53.6,72,30.29,5.0,NNE,13.8,23.0,N/A,,Haze,30,2013-12-27 03:15:00
9:35 PM,62.6,53.6,72,30.28,7.0,NNE,17.3,23.0,N/A,,Overcast,30,2013-12-27 03:35:00
9:55 PM,62.6,53.6,72,30.29,6.0,NNE,18.4,24.2,0.03,,Haze,30,2013-12-27 03:55:00
10:15 PM,62.6,53.6,72,30.29,10.0,North,-9999.0,-,N/A,,Mostly Cloudy,0,2013-12-27 04:15:00
10:35 PM,62.6,53.6,72,30.29,9.0,NNE,13.8,21.9,N/A,,Mostly Cloudy,30,2013-12-27 04:35:00
10:55 PM,62.6,53.6,72,30.29,7.0,NNE,18.4,-,N/A,,Mostly Cloudy,30,2013-12-27 04:55:00
11:15 PM,62.6,53.6,72,30.28,7.0,NNE,13.8,21.9,N/A,,Mostly Cloudy,30,2013-12-27 05:15:00
11:35 PM,62.6,53.6,72,30.28,9.0,NNE,9.2,19.6,N/A,,Overcast,20,2013-12-27 05:35:00
11:55 PM,62.6,53.6,72,30.29,9.0,NNE,9.2,20.7,0.01,,Overcast,20,2013-12-27 05:55:00